Starlink 31834

operational
NORAD ID: 59721 Int'l Des: 2024-088 Owner: SPXS Country: US Constellation: starlink
LEOCIRCULAR

Starlink 31834について

説明を読み込み中...

リアルタイム位置

3D地球を読み込み中...

次回通過

高度履歴

Altitude vs Time

uPlot chart will show altitude changes over time

軌道要素

1 59721U 24088P 25350.76697407 .00001212 00000-0 53052-4 0 9992
2 59721 53.1591 165.2684 0001202 86.9594 273.1544 15.30200840 91164
Epoch: Dec 16, 2025 • Age: 26 hours

現在のステータス

高度 477.9 km
速度 7.63 km/s
衛星直下点 -9.12°S, 44.4°W
打ち上げ日 May 10, 2024
運用期間 1.6 years
タイプ internet

技術仕様

分類 Payload
質量 730.00 kg
乾燥質量 700.00 kg
総質量 730.00 kg
長さ 0.30 m
直径 4.10 m
スパン 29.00 m
形状 Box + pan
製造者 SPXS
バスタイプ Starlink V2M
フェーズステータス In Orbit
所有者/国 SPXS/US

大規模コンステレーション

Loading constellations...